Regional Weather Roundup
Issued by NWS Charleston, SC

Current Version | Previous Version | Graphics & Text | Print | Product List | Glossary On
Versions: 1 2 3 4 5 6 7 8 9 10 11 12 13 14 15 16 17 18 19 20 21 22 23 24 25 26 27 28 29 30 31 32 33 34 35 36 37 38 39 40 41 42 43 44 45 46 47 48 49 50
000 ASUS42 KCHS 232012 RWRCHS Regional Weather Roundup National Weather Service Charleston SC 300 PM EST TUE JAN 23 2018 NOTE: "fair" indicates few or no clouds below 12,000 feet with no significant weather and/or obstructions to visibility. Not all stations are quality controlled. Use data with caution, especially dewpoint observations. SCZ027-030-031-034>040-042>050-232100- ...Southeast South Carolina... CITY SKY/WX TMP DP RH WIND PRES REMARKS N Charleston FAIR 76 49 38 W23G32 29.85S Waterfront Prk N/A 63 58 84 SW9 29.70F Mount Pleasant FAIR 72 61 68 SW12 29.85S Johns Island FAIR 68 59 73 S10 29.87S Pinopolis N/A 66 52 59 W17 29.76S Moncks Corner FAIR 72 43 35 W10G21 29.85S Summerville FAIR 72 45 37 SW12G23 29.87S Beaufort MCAS FAIR 75 50 41 W18G26 29.89S Beaufort Arpt FAIR 73 50 43 W17G24 29.88S Hilton Head Is SUNNY 73 54 49 W13G26 29.90S Walterboro FAIR 70 41 35 SW20G25 29.88S Allendale FAIR 70 30 23 W9G22 29.88F ...Southern Midlands and Pee Dee... CITY SKY/WX TMP DP RH WIND PRES REMARKS Georgetown FAIR 73 54 49 SW18G28 29.83S Kingstree FAIR 72 41 33 SW18G29 29.83S Orangeburg FAIR 70 34 26 W22 29.85F Barnwell N/A 70 32 24 SW16 29.88S Aiken FAIR 63 32 31 SW17G23 29.92S Manning FAIR 72 23 16 MISG 29.84F Columbia FAIR 68 31 25 W20 29.85S Sumter FAIR 71 29 21 W20G29 29.80F Florence FAIR 73 41 31 W20G26 29.79F Myrtle Beach FAIR 75 57 53 W16G28 29.82S N Myrtle Beach FAIR 59 54 83 SW15 29.80F $$ GAZ063-065-086>088-099>101-113>116-118-119-134>141-150-232100- ...Southeast Georgia... CITY SKY/WX TMP DP RH WIND PRES REMARKS Savannah Arpt PTSUNNY 75 46 35 W22 29.91S Hunter AAF FAIR 75 49 40 W17G24 29.88S Fort Stewart FAIR 73 39 28 W17G28 29.91S Statesboro FAIR 70 22 16 W16G22 29.92F Sylvania FAIR 71 38 30 W13G21 29.92S Claxton FAIR 73 37 27 SW12G21 29.93F ...CSRA, Central and far Southeast Georgia... CITY SKY/WX TMP DP RH WIND PRES REMARKS Thomson FAIR 61 33 35 NW12 29.98R Augusta-Bush FAIR 66 29 24 W21G26 29.90S Augusta-Daniel FAIR 64 30 27 SW9G22 29.91S Swainsboro FAIR 66 32 28 W10G24 29.95R Vidalia FAIR 70 34 26 SW12G20 29.95F Eastman FAIR 67 -13 4 W12G20 30.00S Hazlehurst FAIR 70 6 8 W9G18 29.96S Alma FAIR 71 35 26 W13 29.96S Waycross FAIR 73 28 18 W14G22 29.97S Jesup NOT AVBL Baxley FAIR 68 28 22 W15G23 29.96S Brunswick FAIR 73 54 49 SW21G28 29.95F Saint Simons FAIR 75 58 55 W14G24 29.94S $$ SCZ027-028-034-036>038-045-046-048>050-GAZ119-141-232100- ...Lake and Supplemental Coastal Observations... STATION/POSITION TIME TEMP WIND PRES WAVE SWELL AIR SEA DIR/SP/G HT/PER HT/PER/DIR (UTC) (F) (DEG/KT/KT) (MB) (FT/S) (FT/S/D) Winyah Bay 1845 73 250/ 12 1010.0 Lake Murray 1920 61 260/ 18/ 27 1010.5 ACE Basin NERRS 1845 74 240/ 6 1012.0 Fort Pulaski 1948 72 48 270/ 10/ 16 1012.8R Sapelo Island 1900 72 270/ 16 1013.0 $$ ANZ835-935-AMZ111-154-330-350-352-354-370-450-454-472-232100- ...C-MAN and Buoy Observations... STATION/POSITION TIME TEMP WIND PRES WAVE SWELL AIR SEA DIR/SP/G HT/PER HT/PER/DIR (UTC) (F) (DEG/KT/KT) (MB) (FT/S) (FT/S/D) Buoy 41004 1950 67 69 230/ 21/ 27 1011.7F 7/ 7 3/180/12 Buoy 41008 1950 56 51 210/ 12/ 14 1013.3S 3/ 7 2/120/ 7 Folly Beach CMAN 1900 54 220/ 10/ 13 1012.3F Capers Nearshore 1908 52 54 230/ 17/ 21 1010.8F Fripp Nearshore 1908 51 49 220/ 12/ 17 1018.8R STATION/POSITION TIME TEMP WIND PRES WAVE SWELL AIR SEA DIR/SP/G HT/PER HT/PER/DIR (UTC) (F) (DEG/KT/KT) (MB) (FT/S) (FT/S/D) 5E St. Marys GA 1930 51 N/A 3/ 6 Frying Pan Buoy 1950 65 63 240/ 17/ 21 1010.5F 8/ 7 Buoy 41025 2000 68 70 230/ 25/ 33 1008.6 Cape Lookout NC 1900 220/ 12/ 16 1009.6F Buoy 41002 1950 71 70 180/ 19/ 23 1014.5F 6/ 7 Buoy 41010 NOT AVBL St Augustine FL 2000 72 53 260/ 12/ 18 1015.3S $$

USA.gov is the U.S. government's official web portal to all federal, state and local government web resources and services.